Flag for Canada Weather past 2 weeks in Edmonton, Alberta, Canada

Now
61 °F

Clear.


Feels Like: 61 °F
Forecast: 53 / 81 °F
Wind: 2 mph from Southwest

Location: Edmonton Municipal

Current Time: Jul 28, 2014 at 6:58:59 AM

Latest Report: Jul 28, 2014 at 6:00 AM


Visibility: 9 mi

Pressure: 30.20 "Hg

Humidity: 77%

Dew point: 54 °F

Location of EdmontonLocation

Historic Weather in Edmonton — Graph

°F

Edmonton temperature yesterday

Maximum temperature yesterday: 79 °F (at 4:00 PM)
Minimum temperature yesterday: 50 °F (at 5:00 AM)
Average temperature yesterday: 66 °F

Past Weeks' High & Low Weather Summary

 TemperatureHumidityPressure
High84 °F (Jul 15, 3:00 PM)94% (Jul 25, 2:00 AM)30.27 "Hg (Jul 25, 2:00 AM)
Low50 °F (Jul 21, 5:00 AM)28% (Jul 24, 5:00 PM)29.48 "Hg (Jul 25, 7:54 AM)
Average65 °F65%29.90 "Hg
* Reported Jul 13 5:00 AM — Jul 28 5:00 AM, Edmonton, Weather by CustomWeather, © 2014

Note: Actual official high and low records may vary slightly from our data, if they occured in-between our weather recording intervals... More about our weather records

Advertising

Edmonton weather history for previous 24 hours

 ConditionsComfort  
Time TempWeatherWind HumidityBarometerVisibility
5:00 AM
Jul 28
61 °FClear.6 mph77%30.19 "Hg9 mi
4:00 AM64 °FPassing clouds.3 mph68%30.19 "Hg9 mi
3:00 AM64 °FClear.6 mph73%30.18 "Hg9 mi
2:00 AM64 °FClear.2 mph73%30.19 "Hg9 mi
1:00 AM64 °FClear.6 mph73%30.19 "Hg9 mi
12:00 AM66 °FClear.8 mph73%30.19 "Hg9 mi
11:00 PM
Jul 27
68 °FClear.6 mph64%30.19 "Hg9 mi
10:00 PM70 °FSunny.5 mph60%30.19 "Hg9 mi
9:00 PM72 °FPassing clouds.9 mph53%30.18 "Hg9 mi
8:00 PM75 °FScattered clouds.6 mph47%30.17 "Hg9 mi
7:00 PM77 °FScattered clouds.7 mph42%30.18 "Hg9 mi
6:00 PM79 °FScattered clouds.7 mph45%30.19 "Hg9 mi
5:00 PM79 °FScattered clouds.5 mph42%30.18 "Hg9 mi
4:00 PM79 °FPassing clouds.10 mph42%30.19 "Hg9 mi
3:00 PM77 °FPassing clouds.7 mph39%30.20 "Hg9 mi
2:00 PM77 °FSunny.6 mph47%30.20 "Hg9 mi
1:00 PM75 °FSunny.7 mph47%30.21 "Hg9 mi
12:00 PM73 °FSunny.8 mph50%30.21 "Hg9 mi
11:00 AM72 °FSunny.5 mph57%30.21 "Hg9 mi
10:00 AM68 °FSunny.6 mph60%30.22 "Hg9 mi
9:00 AM64 °FSunny.3 mph68%30.23 "Hg9 mi
8:00 AM59 °FSunny.No wind82%30.22 "Hg9 mi
7:00 AM54 °FSunny.No wind94%30.22 "Hg9 mi
6:00 AM50 °FClear.No wind94%30.22 "Hg8 mi
Weather by CustomWeather, © 2014

See weather overviewHow to use our weather pages